Back to catalog

ANIK A3

TELESAT-3

AliveCommunicationsGEO
NORAD 7790·PAYLOAD·🇨🇦 Canada

Launched May 7, 1975 from Cape Canaveral Space Force Station

Loading…

TLE

FreshSource: Space-Track

Epoch: Sep 14, 2026, 13:25 UTC

1 07790U 75038A   26257.55954417 -.00000225  00000-0  00000-0 0  9998
2 07790   7.5101 302.1574 0001126 276.2643 257.6760  1.00040044130854

Track ANIK A3 in real time with AllMySat

Download on the App Store